Regional Weather Roundup
Issued by NWS State College, PA

Home | Current Version | Previous Version | Text Only | Print | Product List | Glossary On
Versions: 1 2 3 4 5 6 7 8 9 10 11 12 13 14 15 16 17 18 19 20 21 22 23 24 25 26 27 28 29 30 31 32 33 34 35 36 37 38 39 40 41 42 43 44 45 46 47 48 49 50
000
ASUS41 KCTP 291910
RWRCTP

REGIONAL WEATHER ROUNDUP
NATIONAL WEATHER SERVICE STATE COLLEGE PA
300 PM EDT WED JUL 29 2015

Note: "fair" indicates few or no clouds below 12,000 feet with no
significant weather and/or obstructions to visibility.

* = STATION THAT DOES NOT REPORT PRECIPITATION /E.G. RAIN...SNOW...ETC/
    THUNDER OR FOG.

PAZ002>004-007>009-013>016-020>023-029>032-292000-
WESTERN PENNSYLVANIA

CITY           SKY/WX    TMP DP  RH WIND       PRES   REMARKS
ERIE           SUNNY     87  70  56 NW6       29.94F
MEADVILLE      MOSUNNY   88  65  46 SW9       29.98F
FRANKLIN*      PTSUNNY   86  66  51 SE10      30.01F
NEW CASTLE     MOCLDY    90  70  51 CALM      29.98F HX  95
BEAVER COUNTY  MOSUNNY   90  70  51 S5        29.98F HX  95
BUTLER*        PTSUNNY   88  70  55 CALM      30.00F
PITTSBURGH INT CLOUDY    89  67  47 S6        29.98F
PITTSBURGH     PTSUNNY   88  65  46 S5        29.97F
INDIANA*       PTSUNNY   86  70  58 SW5       30.03S
LATROBE        PTSUNNY   90  72  55 W6        29.99F HX  96
WASHINGTON CO* NOT AVBL
$$

PAZ004>006-010>012-017>019-024>028-033>037-041-042-045-046-049>053-292000-
CENTRAL PENNSYLVANIA

CITY           SKY/WX    TMP DP  RH WIND       PRES   REMARKS
BRADFORD       MOSUNNY   83  59  44 S9        30.04F
DUBOIS         PTSUNNY   86  65  49 SE7       30.02F
CLEARFIELD     PTSUNNY   86  66  51 S8        30.02F
JOHNSTOWN      PTSUNNY   83  66  56 VRB7      30.05F
ALTOONA        PTSUNNY   85  70  60 SE6       30.03F
STATE COLLEGE  MOSUNNY   84  68  58 SW9       30.01F
WILLIAMSPORT   MOSUNNY   89  65  44 VRB3      29.96F
SELINSGROVE    MOSUNNY   88  68  51 CALM      29.98F
FT INDIANTOWN  MOSUNNY   88  69  53 S3        29.97F
CAPITAL CITY   MOSUNNY   89  71  55 VRB5      29.96F HX  95
HARRISBURG     PTSUNNY   91  72  53 VRB5      29.96F HX  98
YORK           MOSUNNY   86  72  62 VRB3      29.98F
$$

PAZ038>040-043-044-047-048-054-055-060>062-067>071-292000-
EASTERN PENNSYLVANIA

CITY           SKY/WX    TMP DP  RH WIND       PRES   REMARKS
SCRANTON       SUNNY     90  63  40 S5        29.98F
MOUNT POCONO     N/A    N/A N/A N/A MISG      30.05
ALLENTOWN      PTSUNNY   91  68  46 SW8       29.97F HX  95
QUAKERTOWN*    PTCLDY    91  66  43 SW9       30.00S
READING        MOSUNNY   91  66  43 MISG      29.96F
LANCASTER      MOSUNNY   89  70  53 S7        29.98F
COATESVILLE    PTCLDY    86  73  66 SE3       30.01F
POTTSTOWN      SUNNY     89  69  51 SW7       29.99F
BLUE BELL      MOSUNNY   91  70  49 SW7       29.97F HX  97
DOYLESTOWN     PTSUNNY   89  69  51 NW7       29.97F
WILLOW GROVE   NOT AVBL
NORTH PHILA    MOSUNNY   93  63  36 S7G17     29.98F
PHILADELPHIA   PTSUNNY   92  69  47 SW9       29.97F HX  97
$$


USA.gov is the U.S. government's official web portal to all federal, state and local government web resources and services.